| time (UTC) | temp C | wind direction | speed KPH | gust KPH | rain 1hr cm | rain 24hr cm | rain mn cm | humidity % | barometer mb |
| 20260507180529 | 13 | 359 | 6.4 | 17.7 | 0.00 | 0.00 | 0.00 | 22 | 1012.1 |
| 20260507175525 | 12 | 339 | 4.8 | 16.1 | 0.00 | 0.00 | 0.00 | 22 | 1012.4 |
| 20260507174522 | 13 | 304 | 3.2 | 12.9 | 0.00 | 0.00 | 0.00 | 23 | 1012.4 |
| 20260507173519 | 13 | 293 | 3.2 | 12.9 | 0.00 | 0.00 | 0.00 | 22 | 1012.5 |
| 20260507172535 | 12 | 291 | 4.8 | 16.1 | 0.00 | 0.00 | 0.00 | 23 | 1012.6 |
| 20260507171527 | 13 | 285 | 4.8 | 12.9 | 0.00 | 0.00 | 0.00 | 23 | 1012.6 |
| 20260507170524 | 12 | 264 | 4.8 | 12.9 | 0.00 | 0.00 | 0.00 | 24 | 1012.7 |
| 20260507165520 | 13 | 317 | 4.8 | 16.1 | 0.00 | 0.00 | 0.00 | 22 | 1012.7 |
| 20260507164517 | 13 | 281 | 3.2 | 6.4 | 0.00 | 0.00 | 0.00 | 21 | 1012.9 |
| 20260507163529 | 15 | 343 | 3.2 | 12.9 | 0.00 | 0.00 | 0.00 | 20 | 1012.9 |
| 20260507162525 | 15 | 256 | 3.2 | 8.0 | 0.00 | 0.00 | 0.00 | 20 | 1013.0 |
| 20260507161522 | 13 | 275 | 4.8 | 11.3 | 0.00 | 0.00 | 0.00 | 23 | 1013.1 |
| 20260507160519 | 13 | 291 | 4.8 | 16.1 | 0.00 | 0.00 | 0.00 | 23 | 1013.1 |
| 20260507155515 | 13 | 305 | 4.8 | 12.9 | 0.00 | 0.00 | 0.00 | 23 | 1013.0 |
| 20260507154527 | 12 | 281 | 4.8 | 9.7 | 0.00 | 0.00 | 0.00 | 25 | 1013.0 |
| 20260507153523 | 10 | 281 | 1.6 | 8.0 | 0.00 | 0.00 | 0.00 | 29 | 1013.0 |
| 20260507152519 | 9 | 296 | 1.6 | 6.4 | 0.00 | 0.00 | 0.00 | 31 | 1013.1 |
| 20260507151516 | 8 | 340 | 4.8 | 12.9 | 0.00 | 0.00 | 0.00 | 32 | 1013.1 |
| 20260507150528 | 8 | 7 | 1.6 | 6.4 | 0.00 | 0.00 | 0.00 | 33 | 1013.0 |
| 20260507145524 | 8 | 258 | 1.6 | 6.4 | 0.00 | 0.00 | 0.00 | 35 | 1013.0 |
| 20260507144521 | 7 | 287 | 1.6 | 6.4 | 0.00 | 0.00 | 0.00 | 35 | 1013.0 |
| 20260507143517 | 7 | 261 | 1.6 | 6.4 | 0.00 | 0.00 | 0.00 | 38 | 1013.0 |
| 20260507142529 | 7 | 327 | 1.6 | 6.4 | 0.00 | 0.00 | 0.00 | 40 | 1013.1 |
| 20260507141525 | 7 | 309 | 1.6 | 4.8 | 0.00 | 0.00 | 0.00 | 41 | 1013.0 |
| 20260507140602 | 7 | 0 | 0.0 | 6.4 | 0.00 | 0.00 | 0.00 | 40 | 1013.0 |
| 20260507135519 | 6 | 266 | 1.6 | 9.7 | 0.00 | 0.00 | 0.00 | 47 | 1013.0 |
| 20260507134515 | 6 | 298 | 1.6 | 6.4 | 0.00 | 0.00 | 0.00 | 51 | 1013.0 |
| 20260507133547 | 6 | 20 | 1.6 | 6.4 | 0.00 | 0.00 | 0.00 | 50 | 1013.1 |
| 20260507132604 | 6 | 315 | 1.6 | 6.4 | 0.00 | 0.00 | 0.00 | 51 | 1013.1 |
| 20260507131520 | 6 | 270 | 0.0 | 3.2 | 0.00 | 0.00 | 0.00 | 52 | 1013.1 |
| 20260507130517 | 7 | 238 | 0.0 | 4.8 | 0.00 | 0.00 | 0.00 | 55 | 1013.2 |
| 20260507125529 | 6 | 270 | 0.0 | 4.8 | 0.00 | 0.00 | 0.00 | 60 | 1013.1 |
| 20260507124525 | 5 | 265 | 0.0 | 3.2 | 0.00 | 0.00 | 0.00 | 69 | 1013.1 |
| 20260507123542 | 2 | 0.0 | 1.6 | 0.00 | 0.00 | 0.00 | 73 | 1013.3 | |
| 20260507122519 | 1 | 0.0 | 1.6 | 0.00 | 0.00 | 0.00 | 69 | 1013.2 | |
| 20260507121515 | 0 | 0.0 | 0.0 | 0.00 | 0.00 | 0.00 | 70 | 1013.3 | |
| 20260507120527 | 0 | 0.0 | 0.0 | 0.00 | 0.00 | 0.00 | 71 | 1013.2 | |
| 20260507115604 | 0 | 0.0 | 0.0 | 0.00 | 0.00 | 0.00 | 71 | 1013.2 | |
| 20260507114540 | 0 | 0.0 | 0.0 | 0.00 | 0.00 | 0.00 | 71 | 1013.2 | |
| 20260507113537 | 0 | 0.0 | 0.0 | 0.00 | 0.00 | 0.00 | 71 | 1013.0 | |
| 20260507112548 | 0 | 0.0 | 0.0 | 0.00 | 0.00 | 0.00 | 70 | 1013.0 | |
| 20260507111525 | 0 | 0.0 | 0.0 | 0.00 | 0.00 | 0.00 | 70 | 1012.9 | |
| 20260507110602 | 0 | 0.0 | 0.0 | 0.00 | 0.00 | 0.00 | 70 | 1013.0 | |
| 20260507105518 | 0 | 0.0 | 0.0 | 0.00 | 0.00 | 0.00 | 70 | 1013.0 | |
| 20260507104515 | 0 | 0.0 | 0.0 | 0.00 | 0.00 | 0.00 | 70 | 1013.0 | |
| 20260507103526 | 0 | 0.0 | 0.0 | 0.00 | 0.00 | 0.00 | 69 | 1012.9 | |
| 20260507102523 | 0 | 0.0 | 0.0 | 0.00 | 0.00 | 0.00 | 68 | 1013.0 | |
| 20260507101520 | 0 | 0.0 | 0.0 | 0.00 | 0.00 | 0.00 | 68 | 1012.9 | |
| 20260507100516 | 0 | 0.0 | 0.0 | 0.00 | 0.00 | 0.00 | 67 | 1013.0 | |
| 20260507095528 | 0 | 0.0 | 0.0 | 0.00 | 0.00 | 0.00 | 67 | 1013.0 | |
| 20260507094525 | 0 | 0.0 | 0.0 | 0.00 | 0.00 | 0.00 | 67 | 1013.1 | |
| 20260507093521 | 0 | 0.0 | 0.0 | 0.00 | 0.00 | 0.00 | 66 | 1013.1 | |
| 20260507092518 | 0 | 0.0 | 0.0 | 0.00 | 0.00 | 0.00 | 66 | 1013.1 | |
| 20260507091515 | 0 | 0.0 | 0.0 | 0.00 | 0.00 | 0.00 | 64 | 1013.1 | |
| 20260507090527 | 0 | 0.0 | 0.0 | 0.00 | 0.00 | 0.00 | 63 | 1013.2 | |
| 20260507085523 | 0 | 0.0 | 0.0 | 0.00 | 0.00 | 0.00 | 63 | 1013.1 | |
| 20260507084520 | 0 | 0.0 | 0.0 | 0.00 | 0.00 | 0.00 | 62 | 1013.0 | |
| 20260507083517 | 0 | 0.0 | 0.0 | 0.00 | 0.00 | 0.00 | 62 | 1013.0 | |
| 20260507082528 | 0 | 0.0 | 0.0 | 0.00 | 0.00 | 0.00 | 61 | 1013.1 | |
| 20260507081525 | 0 | 0.0 | 0.0 | 0.00 | 0.00 | 0.00 | 60 | 1013.1 | |
| 20260507080542 | 1 | 0.0 | 0.0 | 0.00 | 0.00 | 0.00 | 60 | 1013.1 | |
| 20260507075516 | 1 | 0.0 | 0.0 | 0.00 | 0.00 | 0.00 | 59 | 1013.1 | |
| 20260507074528 | 1 | 0.0 | 0.0 | 0.00 | 0.00 | 0.00 | 58 | 1013.1 | |
| 20260507073545 | 1 | 0.0 | 0.0 | 0.00 | 0.00 | 0.00 | 58 | 1013.1 | |
| 20260507072522 | 1 | 0.0 | 0.0 | 0.00 | 0.00 | 0.00 | 57 | 1013.3 | |
| 20260507071518 | 1 | 0.0 | 0.0 | 0.00 | 0.00 | 0.00 | 56 | 1013.4 | |
| 20260507070515 | 2 | 0.0 | 0.0 | 0.00 | 0.00 | 0.00 | 55 | 1013.4 | |
| 20260507065527 | 2 | 0.0 | 0.0 | 0.00 | 0.00 | 0.00 | 57 | 1013.5 | |
| 20260507064523 | 2 | 0.0 | 0.0 | 0.00 | 0.00 | 0.00 | 57 | 1013.6 | |
| 20260507063520 | 2 | 0.0 | 0.0 | 0.00 | 0.00 | 0.00 | 56 | 1013.7 | |
| 20260507062517 | 3 | 0.0 | 0.0 | 0.00 | 0.00 | 0.00 | 55 | 1013.7 | |
| 20260507061529 | 3 | 0.0 | 0.0 | 0.00 | 0.00 | 0.00 | 54 | 1013.8 | |
| 20260507060525 | 3 | 0.0 | 0.0 | 0.00 | 0.00 | 0.00 | 54 | 1013.8 | |
| 20260507055522 | 3 | 0.0 | 0.0 | 0.00 | 0.00 | 0.00 | 53 | 1013.9 | |
| 20260507054519 | 4 | 0.0 | 0.0 | 0.00 | 0.00 | 0.00 | 52 | 1013.9 | |
| 20260507053515 | 5 | 0.0 | 0.0 | 0.00 | 0.00 | 0.00 | 51 | 1013.9 | |
| 20260507052547 | 5 | 0.0 | 0.0 | 0.00 | 0.00 | 0.00 | 51 | 1014.0 | |
| 20260507051524 | 5 | 0.0 | 0.0 | 0.00 | 0.00 | 0.00 | 50 | 1014.0 | |
| 20260507050520 | 5 | 0.0 | 0.0 | 0.00 | 0.00 | 0.00 | 50 | 1014.0 | |
| 20260507045536 | 5 | 0.0 | 0.0 | 0.00 | 0.00 | 0.00 | 51 | 1014.1 | |
| 20260507044529 | 5 | 0.0 | 0.0 | 0.00 | 0.00 | 0.00 | 51 | 1014.1 | |
| 20260507043525 | 5 | 0.0 | 0.0 | 0.00 | 0.00 | 0.00 | 51 | 1014.2 | |
| 20260507042522 | 5 | 0.0 | 0.0 | 0.00 | 0.00 | 0.00 | 52 | 1014.3 | |
| 20260507041518 | 5 | 0.0 | 0.0 | 0.00 | 0.00 | 0.00 | 51 | 1014.5 | |
| 20260507040516 | 5 | 0.0 | 0.0 | 0.00 | 0.00 | 0.00 | 51 | 1014.4 | |
| 20260507035546 | 5 | 0.0 | 0.0 | 0.00 | 0.00 | 0.00 | 51 | 1014.5 | |
| 20260507034543 | 5 | 0.0 | 0.0 | 0.00 | 0.00 | 0.00 | 50 | 1014.5 | |
| 20260507033520 | 5 | 0.0 | 0.0 | 0.00 | 0.00 | 0.00 | 50 | 1014.6 | |
| 20260507032517 | 5 | 0.0 | 0.0 | 0.00 | 0.00 | 0.00 | 50 | 1014.6 | |
| 20260507031528 | 5 | 0.0 | 0.0 | 0.00 | 0.00 | 0.00 | 49 | 1014.7 | |
| 20260507030525 | 5 | 0.0 | 0.0 | 0.00 | 0.00 | 0.00 | 48 | 1014.7 | |
| 20260507025522 | 5 | 0.0 | 0.0 | 0.00 | 0.00 | 0.00 | 46 | 1014.8 | |
| 20260507024518 | 5 | 0.0 | 0.0 | 0.00 | 0.00 | 0.00 | 45 | 1014.9 | |
| 20260507023535 | 5 | 0.0 | 0.0 | 0.00 | 0.00 | 0.00 | 43 | 1014.9 | |
| 20260507022527 | 5 | 0.0 | 1.6 | 0.00 | 0.00 | 0.00 | 41 | 1014.9 | |
| 20260507021523 | 5 | 0.0 | 1.6 | 0.00 | 0.00 | 0.00 | 41 | 1014.9 | |
| 20260507020520 | 6 | 0.0 | 1.6 | 0.00 | 0.00 | 0.00 | 40 | 1015.0 | |
| 20260507015529 | 6 | 0.0 | 3.2 | 0.00 | 0.00 | 0.00 | 39 | 1014.9 | |
| 20260507014526 | 6 | 0.0 | 1.6 | 0.00 | 0.00 | 0.00 | 38 | 1014.9 | |
| 20260507013523 | 6 | 0.0 | 1.6 | 0.00 | 0.00 | 0.00 | 37 | 1014.9 | |
| 20260507012519 | 6 | 289 | 1.6 | 6.4 | 0.00 | 0.00 | 0.00 | 36 | 1015.0 |
| 20260507011516 | 7 | 284 | 1.6 | 6.4 | 0.00 | 0.00 | 0.00 | 35 | 1014.9 |
| 20260507010528 | 7 | 264 | 1.6 | 9.7 | 0.00 | 0.00 | 0.00 | 36 | 1015.0 |
| 20260507005525 | 7 | 285 | 1.6 | 8.0 | 0.00 | 0.00 | 0.00 | 36 | 1015.0 |
| 20260507004521 | 7 | 294 | 3.2 | 11.3 | 0.00 | 0.00 | 0.00 | 36 | 1015.1 |
| 20260507003518 | 7 | 303 | 3.2 | 8.0 | 0.00 | 0.00 | 0.00 | 36 | 1015.1 |
| 20260507002549 | 7 | 290 | 3.2 | 9.7 | 0.00 | 0.00 | 0.00 | 36 | 1015.2 |
| 20260507001526 | 7 | 338 | 4.8 | 17.7 | 0.00 | 0.00 | 0.00 | 36 | 1015.2 |
| 20260507000523 | 7 | 332 | 4.8 | 9.7 | 0.00 | 0.00 | 0.00 | 35 | 1015.3 |
| 20260506235519 | 7 | 311 | 3.2 | 9.7 | 0.00 | 0.00 | 0.00 | 34 | 1015.3 |
| 20260506234516 | 7 | 217 | 3.2 | 9.7 | 0.00 | 0.00 | 0.00 | 35 | 1015.4 |
| 20260506233528 | 7 | 233 | 3.2 | 17.7 | 0.00 | 0.00 | 0.00 | 35 | 1015.6 |
| 20260506232524 | 8 | 279 | 3.2 | 9.7 | 0.00 | 0.00 | 0.00 | 34 | 1015.6 |
| 20260506231521 | 8 | 273 | 1.6 | 9.7 | 0.00 | 0.00 | 0.00 | 35 | 1015.7 |
| 20260506230517 | 8 | 313 | 4.8 | 14.5 | 0.00 | 0.00 | 0.00 | 35 | 1015.7 |
| 20260506225549 | 8 | 334 | 3.2 | 16.1 | 0.00 | 0.00 | 0.00 | 34 | 1015.7 |
| 20260506224526 | 8 | 312 | 4.8 | 12.9 | 0.00 | 0.00 | 0.00 | 34 | 1015.8 |
| 20260506223522 | 8 | 303 | 3.2 | 11.3 | 0.00 | 0.00 | 0.00 | 34 | 1015.8 |
| 20260506222519 | 8 | 282 | 1.6 | 11.3 | 0.00 | 0.00 | 0.00 | 34 | 1015.8 |
| 20260506221515 | 8 | 313 | 6.4 | 16.1 | 0.00 | 0.00 | 0.00 | 33 | 1016.0 |
| 20260506220527 | 8 | 347 | 3.2 | 6.4 | 0.00 | 0.00 | 0.00 | 34 | 1016.0 |
| 20260506215524 | 8 | 267 | 3.2 | 6.4 | 0.00 | 0.00 | 0.00 | 33 | 1016.1 |
| 20260506214520 | 8 | 302 | 3.2 | 12.9 | 0.00 | 0.00 | 0.00 | 35 | 1016.2 |
| 20260506213517 | 8 | 266 | 3.2 | 11.3 | 0.00 | 0.00 | 0.00 | 36 | 1016.3 |
| 20260506212529 | 7 | 302 | 4.8 | 14.5 | 0.00 | 0.00 | 0.00 | 36 | 1016.3 |
| 20260506211525 | 7 | 301 | 3.2 | 12.9 | 0.00 | 0.00 | 0.00 | 36 | 1016.4 |
| 20260506210542 | 8 | 308 | 4.8 | 14.5 | 0.00 | 0.00 | 0.00 | 36 | 1016.5 |
| 20260506205518 | 7 | 307 | 3.2 | 9.7 | 0.00 | 0.00 | 0.00 | 36 | 1016.6 |
| 20260506204515 | 8 | 262 | 3.2 | 17.7 | 0.00 | 0.00 | 0.00 | 36 | 1016.6 |
| 20260506203527 | 7 | 264 | 3.2 | 6.4 | 0.00 | 0.00 | 0.00 | 36 | 1016.6 |
| 20260506202523 | 7 | 252 | 6.4 | 12.9 | 0.00 | 0.00 | 0.00 | 36 | 1016.7 |
| 20260506201520 | 7 | 309 | 3.2 | 8.0 | 0.00 | 0.00 | 0.00 | 36 | 1016.7 |
| 20260506200517 | 7 | 277 | 3.2 | 12.9 | 0.00 | 0.00 | 0.00 | 37 | 1016.7 |
| 20260506195528 | 7 | 290 | 3.2 | 8.0 | 0.00 | 0.00 | 0.00 | 37 | 1016.7 |
| 20260506194525 | 7 | 292 | 4.8 | 11.3 | 0.00 | 0.00 | 0.00 | 36 | 1016.7 |
| 20260506193602 | 6 | 277 | 1.6 | 8.0 | 0.00 | 0.00 | 0.00 | 36 | 1016.8 |
| 20260506192518 | 6 | 308 | 4.8 | 14.5 | 0.00 | 0.00 | 0.00 | 37 | 1016.8 |
| 20260506191528 | 6 | 291 | 6.4 | 12.9 | 0.00 | 0.00 | 0.00 | 35 | 1016.9 |
| 20260506190525 | 6 | 280 | 1.6 | 12.9 | 0.00 | 0.00 | 0.00 | 36 | 1016.8 |
| 20260506185541 | 6 | 344 | 6.4 | 12.9 | 0.00 | 0.00 | 0.00 | 36 | 1016.8 |
| 20260506184518 | 6 | 343 | 6.4 | 19.3 | 0.00 | 0.00 | 0.00 | 37 | 1016.9 |
| 20260506183535 | 6 | 306 | 4.8 | 16.1 | 0.00 | 0.00 | 0.00 | 37 | 1016.8 |
| 20260506182546 | 6 | 350 | 6.4 | 20.9 | 0.00 | 0.00 | 0.00 | 36 | 1016.8 |
| 20260506181543 | 6 | 272 | 4.8 | 11.3 | 0.00 | 0.00 | 0.00 | 36 | 1016.9 |